User: anonymous   Login
Location: Unspecified
(0.0000°N, 0.0000°E)
Time: 06:58:03
(UTC+00:00)
Language:

TSUBAME - Orbit

View from above orbital plane
View from above orbital plane
View from above satellite
View from above satellite

Ground track
Ground track

The orbit data is extracted from the following two-line orbital elements,

1 40302U 14070E   17202.91596941 +.00001360 +00000-0 +72026-4 0  9998
2 40302 097.3751 274.0300 0040263 004.0497 050.3893 15.16425528149616
Epoch (UTC): 21 July 2017 21:58:59
Eccentricity: 0.0040263
inclination: 97.3751°
perigee height: 489 km
apogee height: 544 km
right ascension of ascending node: 274.0300°
argument of perigee: 4.0497°
revolutions per day: 15.16425528
mean anomaly at epoch: 50.3893°
orbit number at epoch: 14961

The dashed part of the orbit path shows where the satellite is in the earth's shadow,  

DLR